FW6720 Weather Reports


Display with metric or nautical units.
time (UTC)temp
F
wind
direction
speed
MPH
gust
MPH
rain 1hr
in
rain 24hr
in
rain mn
in
humidity
%
barometer
mb
20210729044635 68 99 0.0 0.0 0.00 0.00 0.00 77 1019.5
20210729044133 68 99 0.0 1.0 0.00 0.00 0.00 77 1019.5
20210729043632 68 99 0.0 0.0 0.00 0.00 0.00 76 1019.9
20210729043130 69 99 0.0 0.0 0.00 0.00 0.00 75 1019.7
20210729042626 69 99 0.0 0.0 0.00 0.00 0.00 75 1019.6
20210729042125 69 99 0.0 0.0 0.00 0.00 0.00 75 1019.5
20210729041623 70 99 0.0 0.0 0.00 0.00 0.00 75 1019.7
20210729041121 70 99 0.0 0.0 0.00 0.00 0.00 73 1019.7
20210729040620 71 99 0.0 0.0 0.00 0.00 0.00 72 1019.4
20210729040117 71 99 0.0 0.0 0.00 0.00 0.00 72 1019.3
20210729035617 72 99 0.0 0.0 0.00 0.00 0.00 72 1019.3
20210729035116 72 99 0.0 0.0 0.00 0.00 0.00 71 1019.3
20210729034616 73 99 0.0 0.0 0.00 0.00 0.00 70 1019.0
20210729034114 73 99 0.0 1.0 0.00 0.00 0.00 69 1019.3
20210729033613 73 99 0.0 0.0 0.00 0.00 0.00 68 1019.2
20210729033112 74 99 0.0 0.0 0.00 0.00 0.00 68 1019.1
20210729032610 74 99 0.0 0.0 0.00 0.00 0.00 65 1019.1
20210729032109 75 99 0.0 1.0 0.00 0.00 0.00 67 1019.0
20210729031607 75 99 0.0 1.0 0.00 0.00 0.00 67 1019.1
20210729031106 75 99 0.0 0.0 0.00 0.00 0.00 65 1019.0
20210729030605 76 99 0.0 1.0 0.00 0.00 0.00 64 1019.0
20210729030100 77 99 0.0 0.0 0.00 0.00 0.00 63 1019.0
20210729025559 78 99 1.0 1.0 0.00 0.00 0.00 62 1019.0
20210729025055 79 99 1.0 2.0 0.00 0.00 0.00 60 1018.9
20210729024553 79 99 1.0 1.0 0.00 0.00 0.00 55 1019.0
20210729024051 80 99 0.0 0.0 0.00 0.00 0.00 54 1019.1
20210729023549 80 99 0.0 1.0 0.00 0.00 0.00 57 1018.9
20210729023048 81 99 2.0 2.0 0.00 0.00 0.00 55 1018.5
20210729022548 82 99 0.0 0.0 0.00 0.00 0.00 55 1018.7
20210729022045 82 99 0.0 1.0 0.00 0.00 0.00 48 1018.8
20210729021544 83 99 0.0 0.0 0.00 0.00 0.00 47 1018.7
20210729021038 82 17 1.0 1.0 0.00 0.00 0.00 47 1018.8
20210729020537 83 17 0.0 0.0 0.00 0.00 0.00 54 1019.0
20210729020035 84 20 1.0 1.0 0.00 0.00 0.00 48 1018.7
20210729015535 83 17 0.0 1.0 0.00 0.00 0.00 44 1018.7
20210729015034 84 347 1.0 1.0 0.00 0.00 0.00 45 1018.7
20210729014532 84 347 0.0 0.0 0.00 0.00 0.00 46 1018.8
20210729014031 85 347 0.0 0.0 0.00 0.00 0.00 41 1018.7
20210729013529 87 348 0.0 0.0 0.00 0.00 0.00 43 1018.8
20210729013028 88 344 1.0 2.0 0.00 0.00 0.00 39 1018.6
20210729012528 89 40 1.0 1.0 0.00 0.00 0.00 40 1018.8
20210729012026 89 40 1.0 1.0 0.00 0.00 0.00 36 1018.8
20210729011525 88 102 0.0 1.0 0.00 0.00 0.00 41 1018.7
20210729011025 90 203 0.0 0.0 0.00 0.00 0.00 37 1018.6
20210729010523 89 203 1.0 1.0 0.00 0.00 0.00 37 1018.7
20210729010022 88 344 0.0 0.0 0.00 0.00 0.00 39 1018.5
20210729005520 88 111 0.0 1.0 0.00 0.00 0.00 37 1018.9
20210729005018 89 112 0.0 1.0 0.00 0.00 0.00 39 1018.8
20210729004518 91 150 1.0 1.0 0.00 0.00 0.00 36 1018.8
20210729004016 90 348 0.0 0.0 0.00 0.00 0.00 35 1018.8
20210729003514 89 346 0.0 0.0 0.00 0.00 0.00 35 1018.8
20210729003013 89 202 0.0 0.0 0.00 0.00 0.00 38 1019.1
20210729002512 89 33 1.0 1.0 0.00 0.00 0.00 38 1019.1
20210729002005 88 19 0.0 0.0 0.00 0.00 0.00 38 1019.0
20210729001504 88 19 0.0 0.0 0.00 0.00 0.00 38 1018.8
20210729001004 88 19 1.0 1.0 0.00 0.00 0.00 36 1019.0
20210729000503 87 20 1.0 1.0 0.00 0.00 0.00 42 1018.8
20210729000003 87 11 1.0 1.0 0.00 0.00 0.00 45 1019.0
20210728235502 87 8 0.0 0.0 0.00 0.00 0.00 39 1018.9
20210728235001 88 346 1.0 1.0 0.00 0.00 0.00 39 1019.3
20210728234459 88 344 2.0 3.0 0.00 0.00 0.00 39 1019.1
20210728233958 87 347 0.0 0.0 0.00 0.00 0.00 39 1019.2
20210728233456 87 347 0.0 0.0 0.00 0.00 0.00 41 1019.2
20210728232956 88 347 0.0 0.0 0.00 0.00 0.00 39 1019.3
20210728232454 89 345 2.0 2.0 0.00 0.00 0.00 36 1019.5
20210728231952 88 348 2.0 2.0 0.00 0.00 0.00 36 1019.4
20210728231451 90 350 1.0 1.0 0.00 0.00 0.00 36 1019.3
20210728230951 90 338 1.0 2.0 0.00 0.00 0.00 36 1019.5
20210728230449 92 340 1.0 2.0 0.00 0.00 0.00 36 1019.5
20210728225949 92 338 1.0 1.0 0.00 0.00 0.00 36 1019.3
20210728225448 90 339 0.0 0.0 0.00 0.00 0.00 36 1019.4
20210728224948 90 339 0.0 1.0 0.00 0.00 0.00 34 1019.4
20210728224444 91 202 0.0 0.0 0.00 0.00 0.00 38 1019.6
20210728223943 91 202 1.0 1.0 0.00 0.00 0.00 35 1019.6
20210728223443 90 202 1.0 1.0 0.00 0.00 0.00 36 1019.6
20210728222941 89 202 1.0 1.0 0.00 0.00 0.00 37 1019.8
20210728222439 90 189 1.0 2.0 0.00 0.00 0.00 36 1019.8
20210728221938 89 5 0.0 1.0 0.00 0.00 0.00 37 1019.8
20210728221437 90 102 1.0 1.0 0.00 0.00 0.00 36 1020.1
20210728220936 90 108 1.0 1.0 0.00 0.00 0.00 36 1019.8
20210728220434 90 99 0.0 0.0 0.00 0.00 0.00 35 1020.0
20210728215933 89 99 1.0 1.0 0.00 0.00 0.00 36 1019.9
20210728215432 88 99 0.0 0.0 0.00 0.00 0.00 35 1019.7
20210728214930 87 207 1.0 1.0 0.00 0.00 0.00 38 1020.1
20210728214426 88 356 1.0 2.0 0.00 0.00 0.00 37 1020.0
20210728213924 90 356 1.0 1.0 0.00 0.00 0.00 37 1020.1
20210728213422 90 359 0.0 1.0 0.00 0.00 0.00 37 1020.1
20210728212920 90 358 1.0 1.0 0.00 0.00 0.00 33 1020.2
20210728212418 89 185 1.0 1.0 0.00 0.00 0.00 38 1020.2
20210728211917 87 185 3.0 3.0 0.00 0.00 0.00 36 1020.2
20210728211416 89 352 4.0 5.0 0.00 0.00 0.00 37 1020.2
20210728210915 88 129 0.0 1.0 0.00 0.00 0.00 36 1020.4
20210728210414 90 129 1.0 1.0 0.00 0.00 0.00 36 1020.4
20210728205913 90 129 1.0 2.0 0.00 0.00 0.00 38 1020.5
20210728205411 88 129 0.0 1.0 0.00 0.00 0.00 40 1020.6
20210728204910 88 75 1.0 1.0 0.00 0.00 0.00 36 1020.4
20210728204409 87 76 0.0 1.0 0.00 0.00 0.00 39 1020.6
20210728203910 87 186 2.0 2.0 0.00 0.00 0.00 37 1020.7
20210728203408 86 208 0.0 0.0 0.00 0.00 0.00 39 1020.7
20210728202907 87 130 1.0 1.0 0.00 0.00 0.00 40 1020.8
20210728202406 85 345 0.0 1.0 0.00 0.00 0.00 43 1021.1
20210728201906 84 6 2.0 3.0 0.00 0.00 0.00 41 1020.8
20210728201405 87 346 1.0 2.0 0.00 0.00 0.00 40 1021.0
20210728200904 86 330 1.0 1.0 0.00 0.00 0.00 40 1021.0
20210728200403 84 327 1.0 2.0 0.00 0.00 0.00 42 1021.1
20210728195901 85 166 2.0 2.0 0.00 0.00 0.00 46 1021.1
20210728195359 83 340 1.0 1.0 0.00 0.00 0.00 47 1021.0
20210728194859 83 55 0.0 1.0 0.00 0.00 0.00 47 1021.1
20210728194358 83 184 1.0 2.0 0.00 0.00 0.00 47 1021.2
20210728193857 84 184 3.0 3.0 0.00 0.00 0.00 45 1021.2
20210728193356 82 357 1.0 1.0 0.00 0.00 0.00 50 1021.2
20210728192854 81 0 0.0 0.0 0.00 0.00 0.00 50 1021.2
20210728192354 82 356 3.0 3.0 0.00 0.00 0.00 49 1021.2
20210728191853 82 192 1.0 2.0 0.00 0.00 0.00 49 1021.5
20210728191352 82 329 1.0 1.0 0.00 0.00 0.00 48 1021.3
20210728190851 81 337 0.0 1.0 0.00 0.00 0.00 50 1021.5
20210728190349 81 24 1.0 2.0 0.00 0.00 0.00 49 1021.6
20210728185847 82 18 1.0 1.0 0.00 0.00 0.00 49 1021.4
20210728185345 81 18 1.0 2.0 0.00 0.00 0.00 50 1021.4
20210728184844 81 18 0.0 1.0 0.00 0.00 0.00 49 1021.5
20210728184342 80 18 1.0 1.0 0.00 0.00 0.00 49 1021.5
20210728183841 81 18 1.0 1.0 0.00 0.00 0.00 50 1021.5
20210728183338 79 18 1.0 1.0 0.00 0.00 0.00 48 1021.5
20210728182838 79 18 1.0 2.0 0.00 0.00 0.00 48 1021.6
20210728182337 78 18 1.0 1.0 0.00 0.00 0.00 52 1021.6
20210728181835 78 18 0.0 0.0 0.00 0.00 0.00 52 1021.7
20210728181331 78 18 0.0 0.0 0.00 0.00 0.00 54 1021.5
20210728180830 76 18 0.0 0.0 0.00 0.00 0.00 52 1021.6
20210728180327 75 19 0.0 0.0 0.00 0.00 0.00 59 1021.7
20210728175826 72 20 0.0 1.0 0.00 0.00 0.00 61 1021.7
20210728175323 72 19 1.0 1.0 0.00 0.00 0.00 61 1021.7
20210728174818 72 19 0.0 0.0 0.00 0.00 0.00 64 1021.8
20210728174311 72 19 0.0 0.0 0.00 0.00 0.00 64 1021.8
20210728173811 71 19 0.0 0.0 0.00 0.00 0.00 68 1021.9
20210728173308 70 19 0.0 0.0 0.00 0.00 0.00 68 1021.7
20210728172806 69 19 0.0 0.0 0.00 0.00 0.00 68 1021.9
20210728172305 68 20 0.0 1.0 0.00 0.00 0.00 67 1021.8
20210728171803 68 20 0.0 0.0 0.00 0.00 0.00 66 1021.8
20210728171301 68 20 0.0 0.0 0.00 0.00 0.00 70 1021.7
20210728170758 68 21 0.0 0.0 0.00 0.00 0.00 65 1021.6
20210728170257 69 20 0.0 0.0 0.00 0.00 0.00 66 1021.8
20210728165756 71 20 1.0 1.0 0.00 0.00 0.00 63 1021.7
20210728165256 70 19 0.0 0.0 0.00 0.00 0.00 64 1021.9
20210728164754 68 19 0.0 0.0 0.00 0.00 0.00 72 1021.6
20210728164251 66 19 0.0 0.0 0.00 0.00 0.00 74 1021.8
20210728163751 66 19 0.0 0.0 0.00 0.00 0.00 76 1021.8
20210728163250 64 19 0.0 0.0 0.00 0.00 0.00 78 1021.8
20210728162749 64 18 0.0 0.0 0.00 0.00 0.00 78 1021.9
20210728162247 64 19 0.0 0.0 0.00 0.00 0.00 76 1021.9
20210728161745 64 19 0.0 0.0 0.00 0.00 0.00 76 1021.7
20210728161244 63 19 0.0 0.0 0.00 0.00 0.00 76 1021.7
20210728160743 61 19 1.0 1.0 0.00 0.00 0.00 77 1021.8
20210728160241 60 19 1.0 1.0 0.00 0.00 0.00 79 1021.9
20210728155741 58 19 1.0 1.0 0.00 0.00 0.00 82 1021.9
20210728155238 57 18 0.0 0.0 0.00 0.00 0.00 86 1021.8
20210728154736 56 18 0.0 0.0 0.00 0.00 0.00 86 1021.8
20210728154235 55 18 0.0 0.0 0.00 0.00 0.00 87 1021.8
20210728153732 54 18 0.0 0.0 0.00 0.00 0.00 87 1021.7
20210728153230 53 18 0.0 0.0 0.00 0.00 0.00 89 1022.1
20210728152730 53 18 0.0 0.0 0.00 0.00 0.00 89 1022.0
20210728152227 53 18 0.0 0.0 0.00 0.00 0.00 90 1022.1
20210728151718 52 18 0.0 0.0 0.00 0.00 0.00 90 1022.0
20210728151216 51 18 0.0 0.0 0.00 0.00 0.00 90 1022.2
20210728150713 51 18 0.0 0.0 0.00 0.00 0.00 91 1022.2
20210728150212 51 18 0.0 0.0 0.00 0.00 0.00 91 1022.2
20210728145712 51 18 0.0 0.0 0.00 0.00 0.00 91 1021.9
20210728145209 51 18 0.0 0.0 0.00 0.00 0.00 91 1022.0
20210728144702 50 18 0.0 0.0 0.00 0.00 0.00 91 1022.2
20210728144200 50 18 0.0 0.0 0.00 0.00 0.00 91 1021.9
20210728143654 50 18 0.0 0.0 0.00 0.00 0.00 91 1022.1
20210728143151 50 18 0.0 0.0 0.00 0.00 0.00 91 1022.2
20210728142650 50 18 0.0 0.0 0.00 0.00 0.00 91 1022.3
20210728142148 50 18 0.0 0.0 0.00 0.00 0.00 91 1022.2
20210728141647 50 18 0.0 0.0 0.00 0.00 0.00 91 1022.2
20210728141146 50 18 0.0 0.0 0.00 0.00 0.00 92 1022.1
20210728140644 49 18 0.0 0.0 0.00 0.00 0.00 91 1022.1
20210728140143 49 18 0.0 0.0 0.00 0.00 0.00 91 1022.2
20210728135642 49 18 0.0 0.0 0.00 0.00 0.00 92 1022.1
20210728135138 49 18 0.0 0.0 0.00 0.00 0.00 92 1022.1
20210728134638 49 18 0.0 0.0 0.00 0.00 0.00 92 1021.9
20210728134137 49 17 0.0 0.0 0.00 0.00 0.00 92 1022.1
20210728133636 49 17 0.0 0.0 0.00 0.00 0.00 92 1022.2
20210728133134 48 17 0.0 1.0 0.00 0.00 0.00 92 1022.1
20210728132634 48 16 0.0 0.0 0.00 0.00 0.00 92 1022.1
20210728132132 48 16 0.0 0.0 0.00 0.00 0.00 92 1022.1
20210728131631 48 16 0.0 0.0 0.00 0.00 0.00 92 1022.0
20210728131129 48 16 0.0 0.0 0.00 0.00 0.00 92 1022.0
20210728130628 48 16 0.0 0.0 0.00 0.00 0.00 92 1022.0
20210728130126 48 16 0.0 0.0 0.00 0.00 0.00 93 1022.1
20210728125623 48 16 0.0 0.0 0.00 0.00 0.00 93 1022.2
20210728125123 48 16 0.0 0.0 0.00 0.00 0.00 92 1022.1
20210728124619 48 16 0.0 1.0 0.00 0.00 0.00 92 1022.0
20210728124119 49 16 0.0 0.0 0.00 0.00 0.00 92 1022.1
20210728123616 49 16 0.0 0.0 0.00 0.00 0.00 92 1022.1
20210728123114 49 16 0.0 0.0 0.00 0.00 0.00 92 1022.2
20210728122612 49 16 1.0 1.0 0.00 0.00 0.00 92 1022.1
20210728122112 49 16 0.0 0.0 0.00 0.00 0.00 92 1022.2
20210728121611 49 16 0.0 0.0 0.00 0.00 0.00 92 1022.0
20210728121110 49 16 0.0 0.0 0.00 0.00 0.00 92 1022.0
20210728120608 49 16 0.0 0.0 0.00 0.00 0.00 92 1022.0
20210728120105 49 16 0.0 0.0 0.00 0.00 0.00 92 1021.7
20210728115604 49 16 0.0 0.0 0.00 0.00 0.00 92 1021.8
20210728115104 50 16 0.0 0.0 0.00 0.00 0.00 92 1021.9
20210728114602 50 16 0.0 0.0 0.00 0.00 0.00 91 1022.0
20210728114100 50 17 0.0 0.0 0.00 0.00 0.00 92 1021.8
20210728113555 50 17 0.0 0.0 0.00 0.00 0.00 91 1021.8
20210728113054 50 17 0.0 0.0 0.00 0.00 0.00 91 1021.8
20210728112553 50 17 0.0 0.0 0.00 0.00 0.00 91 1021.7
20210728112051 50 17 0.0 0.0 0.00 0.00 0.00 91 1021.7
20210728111550 51 17 0.0 0.0 0.00 0.00 0.00 91 1021.8
20210728111046 51 17 0.0 0.0 0.00 0.00 0.00 91 1021.5
20210728110546 51 17 0.0 0.0 0.00 0.00 0.00 91 1021.4
20210728110045 51 17 0.0 0.0 0.00 0.00 0.00 91 1021.5
20210728105545 51 17 0.0 1.0 0.00 0.00 0.00 91 1021.6
20210728105042 51 17 0.0 0.0 0.00 0.00 0.00 91 1021.7
20210728104537 51 17 0.0 0.0 0.00 0.00 0.00 91 1021.6
20210728104030 51 17 0.0 0.0 0.00 0.00 0.00 91 1021.6
20210728103528 51 17 1.0 1.0 0.00 0.00 0.00 91 1021.5
20210728103027 51 17 0.0 0.0 0.00 0.00 0.00 91 1021.8
20210728102527 51 17 0.0 0.0 0.00 0.00 0.00 91 1021.9
20210728102026 52 17 0.0 0.0 0.00 0.00 0.00 90 1021.5
20210728101525 52 17 0.0 0.0 0.00 0.00 0.00 90 1021.8
20210728101024 52 17 0.0 0.0 0.00 0.00 0.00 90 1021.7
20210728100522 52 17 0.0 0.0 0.00 0.00 0.00 90 1021.6
20210728100019 52 17 0.0 0.0 0.00 0.00 0.00 90 1021.4
20210728095518 52 18 0.0 0.0 0.00 0.00 0.00 90 1021.6
20210728095018 52 18 0.0 0.0 0.00 0.00 0.00 90 1021.8
20210728094517 53 18 0.0 0.0 0.00 0.00 0.00 90 1021.7
20210728094015 53 18 0.0 0.0 0.00 0.00 0.00 90 1021.5
20210728093513 53 18 0.0 0.0 0.00 0.00 0.00 89 1021.6
20210728093011 53 18 0.0 1.0 0.00 0.00 0.00 89 1021.6
20210728092511 53 18 0.0 0.0 0.00 0.00 0.00 89 1021.7
20210728092010 53 18 0.0 0.0 0.00 0.00 0.00 89 1021.9
20210728091509 53 18 0.0 0.0 0.00 0.00 0.00 89 1021.9
20210728091007 53 18 0.0 0.0 0.00 0.00 0.00 88 1021.8
20210728090505 54 18 0.0 0.0 0.00 0.00 0.00 88 1021.7
20210728090005 54 18 0.0 0.0 0.00 0.00 0.00 88 1021.7
20210728085505 54 18 0.0 0.0 0.00 0.00 0.00 88 1021.7
20210728085004 54 18 0.0 0.0 0.00 0.00 0.00 88 1021.7
20210728084502 54 18 0.0 0.0 0.00 0.00 0.00 88 1021.7
20210728084000 54 18 0.0 0.0 0.00 0.00 0.00 88 1021.5
20210728083459 55 18 0.0 0.0 0.00 0.00 0.00 88 1021.8
20210728082956 55 19 0.0 0.0 0.00 0.00 0.00 87 1021.8
20210728082455 55 19 0.0 0.0 0.00 0.00 0.00 87 1021.6
20210728081955 55 18 0.0 0.0 0.00 0.00 0.00 87 1021.9
20210728081453 55 19 0.0 0.0 0.00 0.00 0.00 87 1021.6
20210728080952 55 18 0.0 0.0 0.00 0.00 0.00 87 1021.8
20210728080451 55 19 0.0 0.0 0.00 0.00 0.00 87 1021.7
20210728075949 56 19 0.0 0.0 0.00 0.00 0.00 86 1021.7
20210728075447 56 18 0.0 0.0 0.00 0.00 0.00 86 1021.9
20210728074947 56 18 0.0 0.0 0.00 0.00 0.00 86 1021.6
20210728074444 56 18 0.0 0.0 0.00 0.00 0.00 86 1021.6
20210728073943 56 19 0.0 0.0 0.00 0.00 0.00 86 1021.7
20210728073441 57 18 0.0 0.0 0.00 0.00 0.00 85 1021.7
20210728072940 57 19 0.0 0.0 0.00 0.00 0.00 85 1021.8
20210728072439 57 18 0.0 0.0 0.00 0.00 0.00 85 1021.4
20210728071934 57 19 0.0 0.0 0.00 0.00 0.00 85 1021.5
20210728071434 57 19 0.0 0.0 0.00 0.00 0.00 85 1021.6
20210728070934 57 19 0.0 0.0 0.00 0.00 0.00 84 1021.5
20210728070433 57 19 0.0 0.0 0.00 0.00 0.00 84 1021.4
20210728065931 57 19 0.0 0.0 0.00 0.00 0.00 84 1021.3
20210728065431 58 19 0.0 0.0 0.00 0.00 0.00 84 1021.4
20210728064929 58 19 0.0 0.0 0.00 0.00 0.00 83 1021.3
20210728064429 58 19 0.0 0.0 0.00 0.00 0.00 83 1021.2
20210728063929 58 19 0.0 0.0 0.00 0.00 0.00 83 1021.2
20210728063429 58 19 0.0 0.0 0.00 0.00 0.00 83 1021.1
20210728062928 59 19 0.0 0.0 0.00 0.00 0.00 83 1021.1
20210728062427 59 19 0.0 0.0 0.00 0.00 0.00 83 1021.3
20210728061926 59 19 0.0 0.0 0.00 0.00 0.00 82 1021.2
20210728061425 59 19 0.0 0.0 0.00 0.00 0.00 82 1021.4
20210728060923 60 19 0.0 0.0 0.00 0.00 0.00 82 1021.1
20210728060421 60 19 0.0 0.0 0.00 0.00 0.00 82 1021.2
20210728055920 60 19 0.0 0.0 0.00 0.00 0.00 81 1021.2
20210728055420 60 19 0.0 0.0 0.00 0.00 0.00 81 1021.0
20210728054918 61 19 0.0 0.0 0.00 0.00 0.00 81 1021.0
20210728054417 61 19 0.0 0.0 0.00 0.00 0.00 80 1020.9
20210728053917 61 19 0.0 0.0 0.00 0.00 0.00 80 1021.0
20210728053415 61 19 0.0 0.0 0.00 0.00 0.00 79 1021.2
20210728052915 62 19 0.0 0.0 0.00 0.00 0.00 79 1021.2
20210728052414 62 19 0.0 0.0 0.00 0.00 0.00 79 1021.0
20210728051913 62 19 0.0 0.0 0.00 0.00 0.00 78 1021.0
20210728051412 63 19 0.0 0.0 0.00 0.00 0.00 78 1021.0
20210728050856 63 19 0.0 0.0 0.00 0.00 0.00 77 1020.7
20210728050353 63 19 0.0 0.0 0.00 0.00 0.00 77 1020.7
20210728045853 64 19 0.0 0.0 0.00 0.00 0.00 76 1020.7
20210728045352 64 19 0.0 0.0 0.00 0.00 0.00 76 1020.5